Location: Dana
(41.8364°N, 106.7042°W)
Time: 14:15:26
(UTC+00:00)

Tiros 1 despin weight - Pass Details

Date: 18 May 2026
Orbit: 554 x 591 km, 48.2° (Epoch: 6 June)

Event Time Altitude Azimuth Distance (km) Brightness Sun altitude
Rises 13:46:09 0° 285° (WNW) 2,751 ? 20.8°
Reaches altitude 10° 13:48:35 10° 295° (WNW) 1,849 ? 21.2°
Maximum altitude 13:52:26 34° 1° (N) 938 ? 21.9°
Drops below altitude 10° 13:56:16 10° 67° (ENE) 1,836 ? 22.6°
Sets 13:58:41 0° 77° (ENE) 2,729 ? 23.1°
